Theta_e
317 318 319 319 314 309 313 316 312 314 319 327 331 330 329 330 331 333 339 346 345 344 342 340 339 338 337 337 336 335 334 335 336 338 338 338 336 334 332 332 331 330 329 329 326 327 328 331 332
318 319 319 317 311 311 313 314 314 314 316 321 323 326 329 325 331 333 344 347 347 346 344 344 344 343 342 338 338 335 333 333 335 338 338 337 336 334 332 332 332 330 328 326 326 325 328 331 332
318 319 318 309 309 313 315 313 311 313 318 316 321 319 320 320 317 322 332 340 346 346 346 345 344 343 341 340 339 336 334 333 334 337 338 337 337 335 333 333 333 331 330 330 331 331 331 332 332
318 318 315 312 317 316 313 311 310 310 319 321 320 317 311 313 312 314 331 328 333 340 342 344 343 344 345 343 341 340 335 334 335 336 338 338 337 336 335 333 333 332 332 332 332 333 332 333 334
316 315 310 312 314 314 312 310 310 308 313 318 320 315 310 309 310 310 312 326 327 321 321 336 341 341 341 341 344 341 338 335 334 336 337 338 338 337 335 334 333 332 333 332 332 332 333 333 333
314 311 308 311 312 311 310 311 311 310 310 311 315 310 309 309 309 309 310 310 311 311 312 325 338 342 340 342 343 343 341 337 335 335 336 338 338 337 336 335 334 333 333 333 332 332 332 332 333
308 305 308 308 311 310 310 312 309 310 309 309 315 313 310 309 308 309 309 310 310 311 313 325 334 335 337 338 342 342 343 340 336 334 334 335 337 337 337 336 335 334 333 334 333 333 332 331 332
309 303 307 308 309 310 309 310 310 310 309 310 310 308 309 309 308 309 309 309 309 309 310 310 311 313 317 323 333 338 340 340 338 336 334 333 334 336 337 337 336 335 334 334 333 332 331 331 332
308 303 304 307 306 308 309 309 310 309 309 309 309 309 308 309 309 309 309 309 309 309 309 309 309 309 309 309 310 318 334 338 340 337 336 334 333 332 334 336 336 336 335 335 334 332 331 330 332
304 301 305 305 307 307 308 308 309 309 308 308 308 308 308 308 308 309 309 309 309 309 309 309 308 308 308 308 309 309 309 317 332 339 338 336 334 333 331 333 336 336 336 335 335 333 332 331 331
304 303 304 306 307 307 307 307 308 307 307 307 307 308 308 308 309 309 309 309 308 308 308 308 308 309 309 309 308 308 308 309 309 319 330 337 337 336 334 331 334 335 336 336 336 333 332 331 331
306 305 305 307 308 308 307 308 307 306 305 307 307 307 307 307 307 307 307 307 307 307 308 308 308 309 309 309 310 310 309 309 308 309 309 314 325 337 336 334 333 333 335 336 336 334 332 330 331
304 305 307 307 307 307 308 307 307 306 307 307 307 306 306 305 305 304 304 305 306 307 307 307 308 308 309 310 310 310 310 310 310 309 309 309 311 326 336 336 335 332 334 336 336 335 332 330 331
305 305 305 307 306 307 306 307 307 306 306 306 306 305 304 304 303 304 305 305 306 306 307 307 308 309 309 309 310 310 310 310 310 310 310 309 309 311 324 334 337 334 332 334 336 335 333 331 330
306 305 304 305 305 305 306 305 304 306 305 305 303 303 303 302 303 303 302 302 303 304 305 307 308 308 308 309 310 310 309 309 309 309 309 309 309 310 312 319 327 336 335 332 334 335 335 332 331
305 304 305 304 305 306 307 306 304 305 304 302 302 302 302 301 301 302 302 303 303 304 305 305 306 307 307 307 307 307 307 308 308 308 308 308 309 310 311 313 320 326 337 335 333 335 335 334 332
302 305 307 306 305 306 307 306 304 304 303 301 301 301 301 301 302 302 301 301 302 303 303 304 305 305 305 305 305 306 306 306 306 307 307 307 306 308 311 312 314 320 330 337 334 332 334 334 333
306 306 306 306 306 304 305 305 303 302 302 300 300 300 300 300 299 300 300 301 301 302 302 303 303 303 303 303 303 304 304 304 304 304 305 304 305 306 311 313 317 328 329 335 336 332 333 333 332
306 306 305 304 305 305 305 305 303 301 300 299 298 298 298 298 298 299 299 300 301 302 302 301 301 300 300 300 299 299 300 301 301 302 303 303 303 304 308 313 316 328 323 326 334 334 334 334 332
306 306 306 305 305 305 305 305 302 302 300 298 297 297 297 297 298 298 299 300 300 300 300 301 300 299 298 297 296 296 296 296 296 296 301 301 302 303 304 308 313 322 327 324 332 337 337 333 333
306 307 307 307 307 307 307 306 303 301 300 299 297 296 296 295 296 297 298 299 300 300 300 299 298 297 296 295 295 295 296 295 294 294 296 299 301 302 303 306 309 318 324 327 320 333 334 336 334
307 307 307 307 308 307 307 307 305 302 301 299 297 296 295 295 295 296 297 299 299 299 298 297 296 295 294 293 292 290 290 292 293 293 295 297 299 301 302 304 307 313 320 325 325 327 329 334 333
307 308 308 308 308 307 308 305 305 303 303 301 297 295 295 295 295 296 295 296 298 298 296 295 293 294 294 292 291 291 291 292 293 295 296 297 298 299 302 303 307 310 313 324 319 325 325 331 331
307 308 308 307 306 308 308 307 306 305 305 301 297 295 295 295 296 295 295 296 296 297 296 293 294 294 292 291 290 289 290 291 292 295 297 298 298 300 302 304 305 309 312 315 322 318 320 326 331
307 307 308 309 309 310 308 307 306 302 299 298 296 295 294 294 294 295 294 294 295 295 293 295 293 293 292 291 289 290 290 289 291 293 295 298 300 300 302 306 307 307 311 311 316 320 321 322 325
307 307 308 312 309 308 309 310 306 301 298 297 296 295 293 293 293 292 293 294 293 291 294 296 294 293 292 290 289 288 289 289 290 293 295 297 298 302 303 305 307 308 310 310 310 312 321 321 321
308 308 308 311 309 306 306 308 301 299 299 297 296 295 293 291 291 291 292 293 293 290 293 293 293 293 291 290 289 287 289 289 290 294 294 296 300 305 307 308 309 310 312 310 309 309 310 316 320
308 307 307 307 314 316 311 307 306 302 301 295 293 294 293 291 291 290 291 292 291 290 291 291 291 293 292 291 288 287 287 289 291 293 295 296 300 305 307 310 311 315 315 309 309 310 311 313 323
307 308 310 310 312 311 306 303 303 300 297 294 293 293 292 290 290 289 290 290 290 290 289 289 290 291 294 292 290 288 288 288 290 290 291 293 297 303 303 308 311 312 318 315 311 313 314 313 318
307 310 310 308 312 311 307 306 300 299 297 296 295 293 292 290 289 289 289 289 289 289 289 287 287 289 291 293 292 290 290 289 289 290 290 293 294 296 298 301 310 311 313 315 316 317 316 318 319
Wind_Speed
4 5 5 3 3 5 1 2 1 7 5 14 18 14 11 9 3 4 5 9 6 7 5 3 2 2 3 5 5 6 6 6 6 6 6 6 6 7 7 6 6 6 7 10 10 10 11 10 8
3 3 2 2 4 4 4 5 6 3 1 9 11 8 10 5 7 7 9 10 10 9 9 7 5 6 7 6 6 6 6 6 7 7 7 7 7 8 8 7 7 6 8 9 10 10 10 9 8
3 3 3 4 3 3 2 7 8 5 11 4 6 10 6 4 12 6 10 10 9 9 10 11 11 10 7 5 6 6 6 7 8 8 8 9 9 9 9 8 8 7 8 10 10 10 10 9 9
3 2 6 5 4 1 1 7 9 8 10 11 9 7 9 13 7 15 9 13 14 11 9 7 10 10 10 9 8 8 8 8 9 9 10 11 11 11 10 10 10 9 9 10 11 10 10 10 10
2 3 4 4 1 2 1 5 8 10 4 14 3 6 8 15 12 10 10 6 7 7 7 7 6 6 7 6 5 7 9 10 10 11 11 13 13 13 13 12 12 11 11 11 11 11 11 11 12
3 3 5 4 3 2 2 5 5 7 13 10 12 7 6 12 9 9 7 7 7 6 5 2 2 3 3 2 3 8 9 10 10 11 12 13 14 14 15 15 15 15 14 12 12 12 13 13 14
5 4 3 5 4 2 1 2 3 3 9 11 4 4 5 9 9 6 4 3 5 7 5 5 3 4 4 4 3 3 6 10 11 12 13 14 15 16 17 17 17 17 16 15 14 14 14 14 15
3 4 2 2 3 2 1 3 1 4 3 4 2 3 4 5 4 1 1 3 5 5 5 5 7 7 8 7 8 7 8 6 9 13 15 15 17 18 19 19 20 19 19 18 16 16 15 15 16
3 4 1 3 3 1 1 1 1 2 2 4 7 7 5 5 4 6 4 3 4 6 9 9 10 11 12 13 12 10 8 10 11 12 15 17 19 20 21 22 22 22 22 21 19 18 17 17 17
5 3 3 2 2 1 2 3 3 1 6 2 12 10 8 8 7 5 1 7 10 10 11 12 14 14 14 15 15 15 14 14 15 15 15 17 21 22 22 24 24 25 24 23 22 20 19 19 19
2 4 1 3 4 6 2 2 3 2 1 4 5 12 11 9 7 6 5 7 12 14 15 15 16 17 18 17 15 14 17 18 17 18 20 19 22 23 24 26 27 28 27 27 25 24 23 22 21
3 3 2 6 6 9 3 3 3 1 4 5 10 12 10 8 8 8 8 9 12 15 17 19 19 18 20 22 22 21 20 19 20 20 22 23 23 26 27 29 29 30 31 31 29 28 26 24 23
1 4 12 15 23 16 11 10 2 8 14 16 16 12 10 9 9 10 12 13 15 16 18 18 20 23 22 22 24 25 27 28 25 25 22 24 25 25 27 31 32 32 33 34 33 32 30 27 26
7 9 17 14 14 9 8 3 8 7 16 16 12 12 10 10 12 14 16 18 19 21 23 24 24 26 28 31 32 35 38 35 32 31 30 28 28 27 27 29 34 35 35 36 36 36 34 30 28
6 7 8 4 8 2 8 4 5 12 11 14 12 11 10 12 14 19 23 25 27 28 28 29 31 33 33 35 38 41 42 43 42 37 36 36 34 31 31 33 32 38 37 37 38 38 37 33 31
3 4 5 5 9 5 2 1 3 3 6 13 11 11 12 15 18 21 23 25 27 30 32 33 34 36 38 40 42 42 43 44 45 45 40 38 39 35 32 36 39 34 41 41 40 42 40 38 35
6 0 2 9 6 3 5 4 2 4 8 11 11 12 14 16 18 22 25 27 30 32 34 35 37 38 40 40 41 42 43 41 42 43 44 38 38 39 37 35 35 39 38 47 43 43 43 41 38
3 3 2 4 6 6 6 4 3 6 8 9 10 13 17 20 23 24 26 28 30 32 34 36 36 37 38 38 38 39 39 39 38 36 39 37 37 37 40 39 36 36 38 47 46 45 44 44 43
3 3 6 6 10 2 7 4 5 4 6 10 15 19 21 23 23 25 28 30 32 34 36 37 38 37 38 39 42 42 42 42 42 38 34 35 32 35 40 39 36 31 44 47 47 47 45 44 44
5 4 6 6 8 6 7 4 4 4 3 6 13 18 21 24 25 27 29 32 34 37 37 38 38 38 38 40 41 40 42 43 43 42 34 34 28 30 38 38 38 34 35 48 47 49 43 44 45
5 6 5 9 3 4 3 3 4 2 7 6 9 13 17 22 26 30 33 35 36 38 39 39 38 38 38 39 41 42 43 43 41 39 38 33 29 28 33 38 36 31 28 35 50 43 48 42 43
4 6 8 5 2 4 1 6 5 4 6 3 7 13 17 21 23 27 31 34 36 37 37 37 37 38 39 39 40 40 40 41 41 40 38 33 32 30 33 37 36 32 25 30 39 38 63 47 41
7 3 4 4 4 0 2 2 1 5 5 3 4 11 15 19 23 27 29 32 33 35 35 35 35 38 39 39 37 36 35 35 36 36 36 33 35 31 30 31 34 31 20 26 31 40 44 57 46
4 4 3 4 3 2 6 9 3 4 3 2 2 9 13 18 20 23 26 29 31 33 34 33 37 38 39 39 36 34 33 33 33 33 33 31 31 32 28 26 30 29 22 17 32 33 49 35 44
3 4 3 3 1 5 1 3 8 5 4 3 0 8 13 16 20 23 25 30 32 34 33 35 36 39 38 38 36 35 33 31 29 29 29 33 32 28 28 25 22 23 21 19 17 30 39 50 40
2 5 3 5 2 4 2 5 5 3 7 4 2 4 10 16 18 20 22 26 29 30 32 34 35 37 38 36 35 35 33 30 28 27 28 30 32 28 25 23 22 19 20 19 19 19 26 43 27
3 1 5 3 1 1 3 3 0 5 5 4 1 5 12 14 16 19 21 23 26 28 31 32 33 34 35 35 34 34 33 29 28 26 26 25 24 24 19 13 13 17 20 20 18 20 21 33 45
3 3 3 2 4 4 3 3 5 7 9 4 1 4 8 10 13 17 20 22 22 26 29 30 31 33 34 34 33 32 33 30 25 21 21 19 17 17 9 14 16 17 21 21 21 21 25 27 43
6 2 2 3 3 3 2 5 1 3 5 6 5 1 5 9 12 14 18 19 21 24 28 30 31 32 33 35 36 35 35 34 26 22 22 19 12 6 5 9 14 14 17 21 23 23 23 27 32
5 2 3 3 1 3 2 5 2 4 8 8 8 4 2 6 9 12 15 18 22 23 27 30 31 33 33 34 38 39 37 38 33 30 28 23 21 15 9 9 8 12 13 19 19 26 28 29 33
Wind_Direction
313 296 316 326 36 65 36 306 267 336 59 48 73 86 100 76 84 151 1 3 35 61 76 88 52 341 268 253 250 243 233 225 218 212 204 192 181 177 184 175 180 183 191 190 189 190 188 193 195
333 314 356 75 76 48 299 316 326 269 224 105 68 70 54 71 57 54 58 56 48 53 61 49 17 336 310 282 267 255 251 239 227 216 206 205 196 191 191 191 197 193 195 195 193 189 189 197 210
347 23 43 83 87 101 305 325 288 296 31 181 116 55 49 2 36 51 44 58 64 62 52 36 29 12 354 311 294 280 259 246 235 223 213 210 210 205 202 198 203 204 202 203 203 202 202 210 219
337 74 68 79 103 103 48 296 322 347 33 45 87 60 68 57 59 45 44 60 69 69 61 48 39 37 30 2 331 311 292 266 244 231 222 216 214 214 212 207 210 210 211 213 216 214 211 216 219
8 60 69 92 236 229 254 337 16 40 78 45 92 82 82 58 60 63 62 64 67 64 79 92 69 45 28 12 352 313 296 284 264 245 228 223 219 217 217 214 215 222 218 223 223 218 218 216 221
28 62 63 143 209 230 258 5 23 42 40 40 67 82 76 52 45 54 47 48 61 46 43 116 83 34 14 354 332 328 300 275 272 257 246 235 229 225 223 221 217 222 226 227 225 223 218 216 221
91 71 174 176 182 124 248 63 50 32 56 27 105 118 135 62 53 70 46 34 44 59 47 48 19 358 326 319 329 291 316 293 273 266 255 244 236 231 229 229 224 224 229 232 228 226 222 217 222
44 89 114 275 175 183 319 116 70 44 115 92 96 107 86 73 87 100 313 348 9 21 34 25 22 17 6 351 322 326 323 306 279 269 268 259 246 240 234 233 229 226 229 234 233 230 226 221 222
29 55 65 243 128 210 287 134 301 322 3 50 74 106 119 172 192 199 235 291 331 341 348 347 341 347 348 352 354 346 301 295 291 274 270 268 261 252 243 238 235 232 230 233 235 233 229 222 221
74 96 234 222 297 346 263 221 210 288 351 141 96 100 144 180 172 191 322 356 350 344 346 342 336 332 328 326 324 327 332 321 299 285 274 271 265 262 253 246 239 235 233 233 234 232 230 224 221
31 168 206 332 318 324 272 256 222 167 254 25 125 124 124 122 103 80 50 9 351 346 340 342 336 330 328 327 328 324 312 311 309 302 297 277 274 267 258 251 243 237 232 231 233 229 228 227 224
4 253 131 302 297 325 286 296 274 71 133 127 136 128 121 99 67 46 21 359 348 342 335 329 330 328 323 321 320 319 315 308 300 292 294 293 286 270 263 257 248 240 235 233 231 232 231 229 226
152 333 314 295 294 280 254 245 238 107 133 135 131 123 89 66 46 22 8 355 345 335 333 329 321 317 313 307 308 310 309 305 297 292 286 282 279 282 274 257 251 245 240 235 233 234 232 230 227
314 286 287 292 288 252 195 223 158 137 138 120 121 93 69 40 20 2 353 349 344 340 336 332 329 324 316 311 307 303 303 301 293 287 282 277 271 268 269 271 255 247 243 240 236 234 234 231 229
291 322 331 2 346 297 194 72 20 131 149 106 87 75 48 26 8 5 360 354 349 344 339 333 328 323 316 310 306 305 302 299 295 287 277 268 267 262 256 266 269 251 244 242 239 235 235 233 228
23 48 3 303 5 10 116 249 33 154 135 82 68 53 31 16 9 2 356 349 344 341 338 335 329 323 318 315 310 305 301 298 295 291 282 270 260 258 254 249 253 262 243 238 237 236 235 234 229
6 76 345 325 356 342 60 279 132 114 123 81 51 34 19 9 5 1 356 351 348 343 338 333 330 326 321 316 313 310 306 303 297 291 287 274 262 251 250 248 246 249 256 231 233 234 233 235 230
314 344 312 277 289 356 322 233 128 83 101 77 44 24 15 11 8 1 357 354 350 346 341 338 335 331 326 323 320 315 312 308 302 297 289 283 267 250 243 245 240 246 249 245 233 230 232 235 233
244 227 249 258 267 263 254 243 163 126 68 45 29 19 13 11 5 3 0 357 352 348 346 346 343 340 336 333 333 329 324 318 313 307 298 290 274 257 244 244 246 238 240 247 233 230 225 230 232
243 262 268 274 270 178 268 251 153 158 102 71 33 20 10 4 5 3 2 0 358 355 351 349 346 343 343 340 335 330 327 324 320 315 307 296 282 263 249 246 244 236 249 252 243 224 220 227 229
241 224 213 232 308 285 290 259 182 162 139 97 37 21 14 7 1 3 4 4 0 358 356 353 349 347 345 340 335 331 329 326 324 320 312 299 289 267 253 246 246 247 234 236 235 228 229 218 223
264 226 244 248 132 238 85 286 223 166 164 123 26 14 10 7 7 7 5 6 3 0 357 356 353 350 348 344 340 337 332 324 327 321 317 308 297 279 259 247 244 248 238 238 234 237 228 224 214
250 282 252 201 194 221 214 54 35 128 211 197 30 9 10 8 10 9 8 7 6 3 1 358 355 354 351 346 342 336 331 323 322 319 314 313 308 294 276 257 246 245 247 234 237 232 221 231 228
256 299 22 48 99 275 218 177 257 193 189 171 1 0 6 9 11 11 11 9 8 6 4 2 2 359 355 351 348 342 333 326 322 322 315 308 304 301 291 271 249 240 237 232 233 245 239 234 237
99 55 330 321 11 232 134 111 244 177 179 159 136 5 3 9 10 10 9 12 9 9 5 8 5 4 360 355 350 351 342 334 323 323 320 311 304 296 288 285 261 236 233 233 239 235 236 225 246
273 161 175 280 238 267 341 242 278 111 145 141 82 21 8 15 13 13 15 15 10 7 9 8 9 8 4 359 356 352 347 344 340 333 324 314 304 292 285 276 257 227 213 229 235 254 239 229 241
328 79 197 267 262 12 223 301 98 144 178 195 143 12 13 14 13 16 19 19 13 11 16 10 12 14 11 6 6 2 358 354 351 339 333 322 306 294 283 268 256 219 207 215 229 238 249 239 223
189 227 342 359 285 251 276 269 242 217 215 176 268 43 8 11 16 20 22 22 17 18 20 17 16 19 17 14 17 14 12 2 2 348 339 335 312 291 280 257 239 231 218 222 227 241 225 229 224
308 286 108 165 195 247 271 260 277 229 170 183 205 136 3 18 19 23 26 24 22 22 24 21 21 22 22 23 28 27 28 22 14 24 29 26 12 321 294 233 224 230 225 222 221 232 225 229 222
208 130 85 142 328 300 278 269 333 149 161 173 176 166 22 26 24 28 26 25 25 25 27 24 26 28 27 28 32 36 35 37 31 33 40 52 53 59 55 76 211 230 248 251 235 228 211 213 216